SM7GXQ Weather Reports


time (UTC)temp
C
wind
direction
speed
KPH
gust
KPH
rain 1hr
cm
rain 24hr
cm
rain mn
cm
humidity
%
barometer
mb
20260902070006 16 228 3.2 11.3 0.00 0.05 0.00 84 1011.7
20260902061504 15 238 1.6 11.3 0.00 0.05 0.00 86 1011.7
20260902060005 15 246 3.2 11.3 0.00 0.05 0.00 87 1011.7
20260902054503 15 249 4.8 11.3 0.00 0.05 0.00 89 1011.7
20260902051504 15 250 4.8 12.9 0.00 0.05 0.00 89 1011.5
20260902044504 14 238 4.8 11.3 0.00 0.05 0.00 90 1010.9
20260902041505 14 200 3.2 11.3 0.00 0.05 0.00 91 1010.9
20260902040004 14 235 3.2 12.9 0.00 0.05 0.00 90 1010.8
20260902034504 15 210 3.2 9.7 0.00 0.05 0.00 90 1010.8
20260902024504 15 239 4.8 11.3 0.00 0.05 0.00 90 1010.7
20260902010004 15 233 1.6 9.7 0.00 0.05 0.00 89 1010.5
20260902004504 16 217 3.2 11.3 0.00 0.05 0.00 88 1010.5
20260902001504 16 285 3.2 8.0 0.00 0.05 0.00 88 1010.4
20260902000004 16 273 3.2 11.3 0.00 0.05 0.00 88 1010.4
20260901233004 16 264 1.6 9.7 0.00 0.05 0.00 87 1010.4
20260901230005 16 229 3.2 8.0 0.00 0.05 0.00 87 1010.7
20260901224504 16 261 3.2 9.7 0.00 0.05 0.00 86 1010.3
20260901223006 16 276 4.8 11.3 0.00 0.05 0.00 85 1010.3
20260901221504 17 299 3.2 9.7 0.00 0.05 0.00 84 1010.2
20260901213005 17 272 4.8 11.3 0.00 0.05 0.05 83 1009.8
20260901204504 18 285 8.0 14.5 0.00 0.05 0.05 82 1009.7
20260901200004 18 265 4.8 14.5 0.00 0.05 0.05 83 1009.6
20260901194504 18 277 6.4 16.1 0.00 0.05 0.05 83 1009.4
20260901193005 18 277 3.2 12.9 0.00 0.05 0.05 83 1009.4
20260901190004 18 280 3.2 9.7 0.00 0.05 0.05 82 1009.0
20260901183005 19 275 3.2 11.3 0.00 0.05 0.05 79 1008.7
20260901181504 19 283 8.0 11.3 0.00 0.05 0.05 77 1008.7
20260901173005 19 222 1.6 4.8 0.00 0.05 0.05 86 1008.4
20260901163005 20 262 0.0 4.8 0.00 0.05 0.05 82 1008.0
20260901153005 21 217 3.2 12.9 0.03 0.05 0.05 77 1007.7
20260901150005 21 197 3.2 9.7 0.00 0.05 0.05 80 1007.8
20260901144505 20 216 3.2 9.7 0.00 0.05 0.05 80 1007.8
20260901133005 18 282 4.8 14.5 0.03 0.05 0.05 83 1007.8
20260901131504 20 212 6.4 19.3 0.00 0.03 0.03 77 1007.8
20260901124505 20 191 6.4 16.1 0.00 0.03 0.03 74 1007.8
20260901121504 21 218 4.8 12.9 0.00 0.03 0.03 72 1007.8
20260901114504 20 225 3.2 11.3 0.00 0.03 0.03 75 1007.9
20260901110005 19 197 4.8 9.7 0.00 0.03 0.03 78 1008.1
20260901104504 18 238 3.2 9.7 0.00 0.03 0.03 79 1008.1
20260901101504 18 258 3.2 12.9 0.00 0.03 0.03 81 1008.1
20260901094504 18 241 6.4 12.9 0.00 0.03 0.03 81 1008.0
20260901093006 18 263 1.6 11.3 0.00 0.03 0.03 81 1008.0
20260901083005 17 251 4.8 12.9 0.00 0.03 0.03 83 1007.4
20260901081504 17 239 4.8 11.3 0.00 0.03 0.03 84 1007.4
20260901080005 17 254 4.8 11.3 0.00 0.03 0.03 86 1007.4
20260901071504 17 256 3.2 8.0 0.00 0.03 0.03 89 1006.7